CW3996 Weather Reports


Display with metric or nautical units.
time (UTC)temp
F
wind
direction
speed
MPH
gust
MPH
rain 1hr
in
rain 24hr
in
rain mn
in
humidity
%
barometer
mb
20260508102715 57 127 10.0 12.0 0.00 0.00 0.00 27 1015.6
20260508102229 57 127 8.0 12.0 0.00 0.00 0.00 27 1015.6
20260508101742 57 127 9.0 12.0 0.00 0.00 0.00 27 1015.5
20260508101219 57 127 8.0 13.0 0.00 0.00 0.00 27 1015.5
20260508100714 58 128 9.0 13.0 0.00 0.00 0.00 27 1015.5
20260508100227 57 128 10.0 12.0 0.00 0.00 0.00 27 1015.5
20260508095720 57 127 9.0 11.0 0.00 0.00 0.00 27 1015.5
20260508095235 57 127 8.0 12.0 0.00 0.00 0.00 27 1015.4
20260508094727 57 127 9.0 13.0 0.00 0.00 0.00 27 1015.4
20260508094221 58 128 9.0 13.0 0.00 0.00 0.00 27 1015.4
20260508093716 58 128 10.0 12.0 0.00 0.00 0.00 27 1015.4
20260508093214 58 128 7.0 11.0 0.00 0.00 0.00 27 1015.4
20260508092728 58 128 6.0 11.0 0.00 0.00 0.00 27 1015.4
20260508092221 58 128 6.0 13.0 0.00 0.00 0.00 27 1015.3
20260508091735 58 128 8.0 13.0 0.00 0.00 0.00 27 1015.3
20260508091228 57 128 10.0 12.0 0.00 0.00 0.00 28 1015.4
20260508090722 57 128 9.0 12.0 0.00 0.00 0.00 28 1015.4
20260508090217 57 128 7.0 11.0 0.00 0.00 0.00 28 1015.4
20260508085731 58 128 8.0 11.0 0.00 0.00 0.00 27 1015.4
20260508085245 58 128 8.0 11.0 0.00 0.00 0.00 27 1015.4
20260508084721 58 128 8.0 11.0 0.00 0.00 0.00 27 1015.5
20260508084216 57 128 9.0 11.0 0.00 0.00 0.00 27 1015.5
20260508083729 58 128 9.0 11.0 0.00 0.00 0.00 27 1015.5
20260508083224 58 128 6.0 11.0 0.00 0.00 0.00 27 1015.5
20260508082717 58 128 9.0 11.0 0.00 0.00 0.00 27 1015.5
20260508082232 58 128 7.0 9.0 0.00 0.00 0.00 27 1015.5
20260508081726 58 128 6.0 11.0 0.00 0.00 0.00 26 1015.6
20260508081219 59 128 6.0 11.0 0.00 0.00 0.00 26 1015.6
20260508080753 59 128 6.0 10.0 0.00 0.00 0.00 25 1015.7
20260508080231 59 128 5.0 10.0 0.00 0.00 0.00 25 1015.7
20260508075745 57 126 6.0 10.0 0.00 0.00 0.00 27 1015.8
20260508075219 59 124 3.0 10.0 0.00 0.00 0.00 25 1015.8
20260508074732 61 124 7.0 13.0 0.00 0.00 0.00 24 1015.7
20260508074226 60 123 9.0 13.0 0.00 0.00 0.00 25 1015.7
20260508073740 59 124 10.0 12.0 0.00 0.00 0.00 25 1015.7
20260508073253 60 123 8.0 10.0 0.00 0.00 0.00 25 1015.7
20260508072726 60 124 7.0 10.0 0.00 0.00 0.00 25 1015.7
20260508072220 60 124 6.0 10.0 0.00 0.00 0.00 25 1015.7
20260508071714 60 124 7.0 10.0 0.00 0.00 0.00 25 1015.6
20260508071232 59 124 7.0 10.0 0.00 0.00 0.00 25 1015.6
20260508070726 59 123 7.0 11.0 0.00 0.00 0.00 26 1015.5
20260508070240 59 124 7.0 12.0 0.00 0.00 0.00 26 1015.6
20260508065732 59 124 9.0 12.0 0.00 0.00 0.00 25 1015.6
20260508065247 59 124 7.0 12.0 0.00 0.00 0.00 25 1015.6
20260508064720 59 123 9.0 11.0 0.00 0.00 0.00 25 1015.6
20260508064214 59 124 8.0 10.0 0.00 0.00 0.00 25 1015.5
20260508063727 60 124 8.0 10.0 0.00 0.00 0.00 25 1015.4
20260508063222 60 124 7.0 9.0 0.00 0.00 0.00 24 1015.5
20260508062740 61 124 7.0 9.0 0.00 0.00 0.00 23 1015.4
20260508062214 62 124 6.0 14.0 0.00 0.00 0.00 22 1015.4
20260508061747 62 123 3.0 14.0 0.00 0.00 0.00 22 1015.4
20260508061241 60 125 10.0 12.0 0.00 0.00 0.00 24 1015.4
20260508060713 60 124 9.0 12.0 0.00 0.00 0.00 24 1015.3
20260508060229 60 124 8.0 12.0 0.00 0.00 0.00 24 1015.3
20260508055722 60 124 10.0 12.0 0.00 0.00 0.00 24 1015.2
20260508055237 60 124 9.0 12.0 0.00 0.00 0.00 23 1015.2
20260508054729 61 124 10.0 15.0 0.00 0.00 0.00 23 1015.2
20260508054223 61 124 11.0 15.0 0.00 0.00 0.00 23 1015.2
20260508053741 61 124 10.0 15.0 0.00 0.00 0.00 23 1015.1
20260508053214 61 123 10.0 14.0 0.00 0.00 0.00 23 1015.2
20260508052728 61 124 10.0 15.0 0.00 0.00 0.00 23 1015.2
20260508052223 61 123 12.0 15.0 0.00 0.00 0.00 23 1015.2
20260508051737 61 121 10.0 13.0 0.00 0.00 0.00 23 1015.2
20260508051230 61 121 10.0 14.0 0.00 0.00 0.00 23 1015.3
20260508050724 61 121 10.0 15.0 0.00 0.00 0.00 22 1015.4
20260508050219 62 121 10.0 15.0 0.00 0.00 0.00 21 1015.3
20260508045717 62 114 12.0 14.0 0.00 0.00 0.00 22 1015.3
20260508045250 62 111 9.0 13.0 0.00 0.00 0.00 22 1015.4
20260508044724 62 111 10.0 13.0 0.00 0.00 0.00 21 1015.3
20260508044218 62 108 8.0 14.0 0.00 0.00 0.00 21 1015.3
20260508043732 62 108 10.0 14.0 0.00 0.00 0.00 21 1015.4
20260508043226 62 106 10.0 12.0 0.00 0.00 0.00 21 1015.4
20260508042720 62 101 9.0 12.0 0.00 0.00 0.00 21 1015.3
20260508042214 62 101 9.0 12.0 0.00 0.00 0.00 21 1015.3
20260508041728 62 99 8.0 12.0 0.00 0.00 0.00 21 1015.3
20260508041226 62 98 10.0 12.0 0.00 0.00 0.00 21 1015.3
20260508040721 62 93 9.0 13.0 0.00 0.00 0.00 21 1015.2
20260508040217 63 92 10.0 13.0 0.00 0.00 0.00 21 1015.2
20260508035731 63 77 10.0 13.0 0.00 0.00 0.00 20 1015.2
20260508035225 63 71 9.0 13.0 0.00 0.00 0.00 20 1015.1
20260508034718 63 322 10.0 12.0 0.00 0.00 0.00 20 1015.1
20260508034233 64 306 8.0 12.0 0.00 0.00 0.00 20 1015.1
20260508033730 64 306 8.0 10.0 0.00 0.00 0.00 20 1015.0
20260508033224 64 305 8.0 11.0 0.00 0.00 0.00 19 1014.9
20260508032718 64 305 7.0 12.0 0.00 0.00 0.00 19 1014.9
20260508032232 64 304 8.0 12.0 0.00 0.00 0.00 19 1014.8
20260508031726 65 304 9.0 11.0 0.00 0.00 0.00 19 1014.8
20260508031219 65 304 8.0 10.0 0.00 0.00 0.00 19 1014.8
20260508030733 65 304 7.0 10.0 0.00 0.00 0.00 19 1014.7
20260508030228 65 304 4.0 9.0 0.00 0.00 0.00 19 1014.7
20260508025726 65 304 4.0 9.0 0.00 0.00 0.00 19 1014.7
20260508025240 65 304 6.0 8.0 0.00 0.00 0.00 19 1014.7
20260508024733 66 304 5.0 8.0 0.00 0.00 0.00 17 1014.6
20260508024224 66 304 6.0 8.0 0.00 0.00 0.00 18 1014.5
20260508023718 66 304 3.0 5.0 0.00 0.00 0.00 18 1014.5
20260508023232 66 304 2.0 3.0 0.00 0.00 0.00 19 1014.5
20260508022726 66 304 2.0 4.0 0.00 0.00 0.00 19 1014.4
20260508022220 67 304 1.0 4.0 0.00 0.00 0.00 18 1014.3
20260508021734 68 304 3.0 4.0 0.00 0.00 0.00 17 1014.3
20260508021231 68 304 3.0 4.0 0.00 0.00 0.00 15 1014.3
20260508020725 69 304 3.0 4.0 0.00 0.00 0.00 15 1014.3
20260508020221 70 304 2.0 5.0 0.00 0.00 0.00 14 1014.3
20260508015715 70 304 2.0 5.0 0.00 0.00 0.00 14 1014.3
20260508015248 71 304 3.0 4.0 0.00 0.00 0.00 13 1014.3
20260508014721 71 304 1.0 4.0 0.00 0.00 0.00 13 1014.3
20260508014216 72 304 2.0 4.0 0.00 0.00 0.00 13 1014.3
20260508013729 72 304 2.0 4.0 0.00 0.00 0.00 12 1014.3
20260508013244 72 304 2.0 4.0 0.00 0.00 0.00 12 1014.3
20260508012720 73 304 1.0 3.0 0.00 0.00 0.00 14 1014.4
20260508012235 72 304 0.0 3.0 0.00 0.00 0.00 12 1014.3
20260508011728 72 304 1.0 4.0 0.00 0.00 0.00 12 1014.3
20260508011222 73 304 3.0 5.0 0.00 0.00 0.00 12 1014.3
20260508010715 73 304 2.0 5.0 0.00 0.00 0.00 12 1014.3
20260508010231 73 304 2.0 5.0 0.00 0.00 0.00 11 1014.4
20260508005724 74 304 3.0 5.0 0.00 0.00 0.00 10 1014.5
20260508005217 74 304 2.0 8.0 0.00 0.00 0.00 11 1014.5
20260508004715 74 304 4.0 10.0 0.00 0.00 0.00 10 1014.5
20260508004229 74 304 5.0 10.0 0.00 0.00 0.00 10 1014.5
20260508003723 75 303 5.0 9.0 0.00 0.00 0.00 10 1014.5
20260508003216 76 303 5.0 9.0 0.00 0.00 0.00 10 1014.5
20260508002729 76 302 3.0 8.0 0.00 0.00 0.00 9 1014.5
20260508002223 77 303 5.0 8.0 0.00 0.00 0.00 9 1014.6
20260508001717 77 303 2.0 6.0 0.00 0.00 0.00 8 1014.6
20260508001214 77 303 4.0 10.0 0.00 0.00 0.00 8 1014.7
20260508000729 76 303 5.0 10.0 0.00 0.00 0.00 9 1014.7
20260508000224 75 303 5.0 12.0 0.00 0.00 0.00 9 1014.7
20260507235717 76 302 6.0 13.0 0.00 0.00 0.00 9 1014.7
20260507235231 76 299 8.0 15.0 0.00 0.00 0.00 8 1014.8
20260507234725 76 323 8.0 15.0 0.00 0.00 0.00 9 1014.7
20260507234219 78 327 9.0 15.0 0.00 0.00 0.00 8 1014.7
20260507233714 78 338 7.0 13.0 0.00 0.00 0.00 7 1014.7
20260507233232 78 322 6.0 10.0 0.00 0.00 0.00 9 1014.8
20260507232726 78 321 4.0 11.0 0.00 0.00 0.00 7 1014.8
20260507232220 78 321 6.0 13.0 0.00 0.00 0.00 8 1014.8
20260507231714 79 323 7.0 17.0 0.00 0.00 0.00 7 1014.9
20260507231248 79 327 11.0 17.0 0.00 0.00 0.00 8 1014.9
20260507230720 78 293 1.0 7.0 0.00 0.00 0.00 7 1014.8
20260507230217 78 293 2.0 10.0 0.00 0.00 0.00 7 1015.0
20260507225730 77 293 6.0 10.0 0.00 0.00 0.00 9 1015.0
20260507225224 77 293 4.0 8.0 0.00 0.00 0.00 9 1015.0
20260507224721 78 293 2.0 15.0 0.00 0.00 0.00 8 1015.1
20260507224216 79 293 5.0 15.0 0.00 0.00 0.00 8 1015.3
20260507223729 78 321 3.0 15.0 0.00 0.00 0.00 6 1015.3
20260507222717 79 309 8.0 13.0 0.00 0.00 0.00 8 1015.4
20260507222229 77 319 3.0 12.0 0.00 0.00 0.00 8 1015.4
20260507221723 78 320 9.0 12.0 0.00 0.00 0.00 10 1015.5
20260507221218 77 279 3.0 14.0 0.00 0.00 0.00 9 1015.5
20260507220751 77 279 9.0 14.0 0.00 0.00 0.00 9 1015.7
20260507220246 77 254 8.0 12.0 0.00 0.00 0.00 8 1015.6
20260507215723 76 256 5.0 15.0 0.00 0.00 0.00 9 1015.9
20260507215217 78 254 2.0 15.0 0.00 0.00 0.00 8 1015.9
20260507214731 79 262 10.0 15.0 0.00 0.00 0.00 7 1016.0
20260507214224 78 279 1.0 13.0 0.00 0.00 0.00 8 1016.0
20260507213719 78 279 8.0 14.0 0.00 0.00 0.00 9 1016.1
20260507213254 78 300 9.0 14.0 0.00 0.00 0.00 8 1016.2
20260507212726 77 277 6.0 12.0 0.00 0.00 0.00 10 1016.2
20260507212220 77 265 3.0 15.0 0.00 0.00 0.00 9 1016.3
20260507211718 77 262 9.0 15.0 0.00 0.00 0.00 9 1016.4
20260507211232 79 288 7.0 14.0 0.00 0.00 0.00 10 1016.4
20260507210726 77 277 5.0 10.0 0.00 0.00 0.00 9 1016.5
20260507210222 76 271 2.0 13.0 0.00 0.00 0.00 8 1016.6
20260507205716 77 271 5.0 16.0 0.00 0.00 0.00 10 1016.8
20260507205231 77 259 9.0 21.0 0.00 0.00 0.00 8 1016.8
20260507204724 78 279 14.0 21.0 0.00 0.00 0.00 8 1016.9
20260507204218 77 299 8.0 15.0 0.00 0.00 0.00 11 1016.8
20260507203736 76 284 9.0 15.0 0.00 0.00 0.00 10 1016.8
20260507203229 76 286 8.0 19.0 0.00 0.00 0.00 9 1017.0
20260507202743 77 292 13.0 20.0 0.00 0.00 0.00 9 1017.1
20260507202216 78 296 10.0 20.0 0.00 0.00 0.00 9 1017.1
20260507201730 77 317 4.0 17.0 0.00 0.00 0.00 7 1017.1
20260507201245 77 316 6.0 17.0 0.00 0.00 0.00 9 1017.1
20260507200717 74 224 2.0 9.0 0.00 0.00 0.00 10 1017.3
20260507200213 76 224 4.0 9.0 0.00 0.00 0.00 8 1017.3
20260507195727 76 223 3.0 15.0 0.00 0.00 0.00 8 1017.3
20260507195225 77 225 9.0 15.0 0.00 0.00 0.00 6 1017.4
20260507194739 76 237 8.0 13.0 0.00 0.00 0.00 7 1017.4
20260507194232 76 240 7.0 15.0 0.00 0.00 0.00 8 1017.5
20260507193746 76 223 8.0 15.0 0.00 0.00 0.00 7 1017.6
20260507193219 75 239 8.0 12.0 0.00 0.00 0.00 8 1017.7
20260507192713 75 252 4.0 11.0 0.00 0.00 0.00 8 1017.7
20260507192227 75 253 5.0 14.0 0.00 0.00 0.00 10 1017.9
20260507191742 75 252 10.0 14.0 0.00 0.00 0.00 7 1017.9
20260507191216 75 217 6.0 9.0 0.00 0.00 0.00 9 1017.9
20260507190713 74 218 6.0 16.0 0.00 0.00 0.00 8 1018.0
20260507190229 75 221 8.0 16.0 0.00 0.00 0.00 9 1018.2
20260507185722 74 222 7.0 16.0 0.00 0.00 0.00 9 1018.2
20260507185216 74 221 6.0 16.0 0.00 0.00 0.00 9 1018.3
20260507184730 74 233 6.0 13.0 0.00 0.00 0.00 10 1018.4
20260507184224 73 232 9.0 13.0 0.00 0.00 0.00 9 1018.5
20260507183738 73 236 8.0 14.0 0.00 0.00 0.00 10 1018.5
20260507183231 74 205 5.0 14.0 0.00 0.00 0.00 10 1018.6
20260507182725 73 203 10.0 19.0 0.00 0.00 0.00 10 1018.6
20260507182223 73 219 8.0 19.0 0.00 0.00 0.00 9 1018.8
20260507181737 73 214 5.0 14.0 0.00 0.00 0.00 10 1018.8
20260507181229 73 213 11.0 17.0 0.00 0.00 0.00 9 1018.9
20260507180744 73 213 9.0 17.0 0.00 0.00 0.00 9 1018.9
20260507180238 72 217 6.0 16.0 0.00 0.00 0.00 12 1018.9
20260507175751 71 219 12.0 16.0 0.00 0.00 0.00 10 1019.0
20260507175246 71 215 9.0 15.0 0.00 0.00 0.00 9 1019.0
20260507174739 72 219 10.0 15.0 0.00 0.00 0.00 9 1019.0
20260507174232 72 225 9.0 15.0 0.00 0.00 0.00 10 1019.0
20260507173725 71 232 9.0 15.0 0.00 0.00 0.00 10 1019.0
20260507173240 71 217 9.0 14.0 0.00 0.00 0.00 9 1019.1
20260507172732 71 208 8.0 14.0 0.00 0.00 0.00 9 1019.1
20260507172226 71 223 7.0 16.0 0.00 0.00 0.00 10 1019.2
20260507171723 71 226 11.0 16.0 0.00 0.00 0.00 10 1019.2
20260507171218 70 219 11.0 16.0 0.00 0.00 0.00 9 1019.2
20260507170731 70 220 9.0 15.0 0.00 0.00 0.00 10 1019.2
20260507170227 69 212 5.0 16.0 0.00 0.00 0.00 11 1019.3
20260507165720 70 220 8.0 16.0 0.00 0.00 0.00 10 1019.3
20260507165214 70 219 7.0 15.0 0.00 0.00 0.00 10 1019.3
20260507164728 69 220 7.0 15.0 0.00 0.00 0.00 10 1019.4
20260507164226 69 215 9.0 14.0 0.00 0.00 0.00 10 1019.5
20260507163720 69 230 10.0 14.0 0.00 0.00 0.00 10 1019.6
20260507163214 69 218 7.0 16.0 0.00 0.00 0.00 11 1019.6
20260507162748 69 205 7.0 16.0 0.00 0.00 0.00 10 1019.7
20260507162221 69 222 7.0 11.0 0.00 0.00 0.00 11 1019.6
20260507161715 69 219 6.0 10.0 0.00 0.00 0.00 11 1019.6
20260507161229 67 219 8.0 11.0 0.00 0.00 0.00 11 1019.6
20260507160722 67 217 8.0 14.0 0.00 0.00 0.00 11 1019.6
20260507160217 67 218 8.0 14.0 0.00 0.00 0.00 11 1019.6
20260507155734 66 200 8.0 10.0 0.00 0.00 0.00 13 1019.7
20260507155228 64 181 7.0 10.0 0.00 0.00 0.00 13 1019.7
20260507154721 64 158 4.0 10.0 0.00 0.00 0.00 15 1019.8
20260507154216 63 132 3.0 7.0 0.00 0.00 0.00 16 1020.0
20260507153730 62 132 1.0 7.0 0.00 0.00 0.00 14 1020.1
20260507153225 62 132 4.0 7.0 0.00 0.00 0.00 15 1020.1
20260507152719 61 132 0.0 7.0 0.00 0.00 0.00 17 1020.2
20260507152213 60 132 1.0 7.0 0.00 0.00 0.00 16 1020.3
20260507151731 60 132 3.0 7.0 0.00 0.00 0.00 16 1020.3
20260507151246 60 132 1.0 4.0 0.00 0.00 0.00 17 1020.5
20260507150718 60 132 1.0 3.0 0.00 0.00 0.00 16 1020.5
20260507150233 59 132 1.0 3.0 0.00 0.00 0.00 17 1020.5
20260507145726 59 132 1.0 3.0 0.00 0.00 0.00 18 1020.5
20260507145219 59 132 0.0 4.0 0.00 0.00 0.00 15 1020.5
20260507144732 59 132 0.0 4.0 0.00 0.00 0.00 18 1020.5
20260507144226 58 132 1.0 4.0 0.00 0.00 0.00 15 1020.5
20260507143740 58 132 1.0 5.0 0.00 0.00 0.00 17 1020.5
20260507143252 58 132 3.0 5.0 0.00 0.00 0.00 18 1020.5
20260507142729 57 132 2.0 7.0 0.00 0.00 0.00 19 1020.5
20260507142223 57 132 4.0 9.0 0.00 0.00 0.00 20 1020.5
20260507141717 56 132 4.0 9.0 0.00 0.00 0.00 21 1020.5
20260507141231 55 132 5.0 7.0 0.00 0.00 0.00 21 1020.5
20260507140725 54 132 2.0 5.0 0.00 0.00 0.00 24 1020.5
20260507140220 53 132 3.0 5.0 0.00 0.00 0.00 25 1020.5
20260507135734 52 132 2.0 3.0 0.00 0.00 0.00 27 1020.3
20260507135227 51 132 1.0 4.0 0.00 0.00 0.00 31 1020.3
20260507134725 50 132 0.0 4.0 0.00 0.00 0.00 32 1020.2
20260507134220 49 133 3.0 4.0 0.00 0.00 0.00 32 1020.2
20260507133735 47 133 2.0 5.0 0.00 0.00 0.00 32 1020.1
20260507133228 47 132 1.0 5.0 0.00 0.00 0.00 33 1020.0
20260507132722 47 132 3.0 7.0 0.00 0.00 0.00 32 1020.1
20260507132217 45 132 4.0 7.0 0.00 0.00 0.00 34 1020.0
20260507131732 44 132 4.0 7.0 0.00 0.00 0.00 34 1020.1
20260507131225 45 132 5.0 7.0 0.00 0.00 0.00 32 1020.1
20260507130253 45 132 5.0 7.0 0.00 0.00 0.00 30 1020.0
20260507125746 44 133 2.0 4.0 0.00 0.00 0.00 30 1020.1
20260507125223 43 132 2.0 5.0 0.00 0.00 0.00 32 1020.1
20260507124715 44 132 2.0 5.0 0.00 0.00 0.00 32 1020.2
20260507124229 43 132 1.0 2.0 0.00 0.00 0.00 32 1020.2
20260507123723 43 133 1.0 2.0 0.00 0.00 0.00 34 1020.2
20260507123218 43 132 1.0 1.0 0.00 0.00 0.00 32 1020.1
20260507122751 43 132 0.0 2.0 0.00 0.00 0.00 32 1020.0
20260507122245 44 132 0.0 5.0 0.00 0.00 0.00 28 1019.9
20260507121718 45 133 2.0 5.0 0.00 0.00 0.00 26 1020.0
20260507121213 47 132 3.0 7.0 0.00 0.00 0.00 25 1019.9
20260507120747 46 132 4.0 7.0 0.00 0.00 0.00 26 1019.9
20260507120246 47 132 2.0 11.0 0.00 0.00 0.00 26 1019.8
20260507115718 49 132 7.0 11.0 0.00 0.00 0.00 25 1019.9
20260507115232 49 132 8.0 11.0 0.00 0.00 0.00 26 1019.9
20260507114726 50 132 7.0 11.0 0.00 0.00 0.00 25 1019.9
20260507114240 50 132 7.0 12.0 0.00 0.00 0.00 25 1020.0
20260507113713 51 132 10.0 12.0 0.00 0.00 0.00 24 1019.9
20260507113228 51 133 7.0 12.0 0.00 0.00 0.00 23 1020.0
20260507112721 50 133 6.0 12.0 0.00 0.00 0.00 25 1020.0
20260507112219 50 133 8.0 12.0 0.00 0.00 0.00 25 1019.8
20260507111713 49 133 8.0 12.0 0.00 0.00 0.00 26 1020.0
20260507111227 49 133 8.0 13.0 0.00 0.00 0.00 26 1020.0
20260507110721 50 133 8.0 13.0 0.00 0.00 0.00 25 1020.1
20260507110217 49 132 9.0 13.0 0.00 0.00 0.00 25 1020.1
20260507105730 50 132 10.0 14.0 0.00 0.00 0.00 26 1020.2
20260507105244 49 127 10.0 14.0 0.00 0.00 0.00 26 1020.3
20260507104717 49 126 9.0 14.0 0.00 0.00 0.00 27 1020.3
20260507104216 49 126 10.0 14.0 0.00 0.00 0.00 26 1020.3
20260507103749 49 120 10.0 13.0 0.00 0.00 0.00 26 1020.4
20260507103222 49 120 10.0 13.0 0.00 0.00 0.00 27 1020.4